Flag for Norway Weather past 2 weeks in Kristiansand, Norway

37 °F

Light rain. Overcast.

Feels Like: 30 °F
Forecast: 34 / 39 °F
Wind: 12 mph from Southwest

Location: Kristiansand / Kjevik

Current Time: Nov 30, 2015 at 3:39:10 AM

Latest Report: Nov 30, 2015 at 1:50 AM

Visibility: 6 mi

Pressure: 29.06 "Hg

Humidity: 87%

Dew point: 34 °F

Location of KristiansandLocation

Historic Weather in Kristiansand — Graph


Kristiansand temperature yesterday

Maximum temperature yesterday: 46 °F (at 12:20 AM)
Minimum temperature yesterday: 36 °F (at 3:20 PM)
Average temperature yesterday: 39 °F

Past Weeks' High & Low Weather Summary

High52 °F (Nov 16, 9:50 AM)100% (Nov 15, 7:50 PM)30.01 "Hg (Nov 15, 7:50 PM)
Low19 °F (Nov 22, 9:20 PM)41% (Nov 22, 2:50 PM)28.88 "Hg (Nov 29, 7:20 PM)
Average37 °F88%29.49 "Hg
* Reported Nov 15 1:20 AM — Nov 30 1:50 AM, Kristiansand, Weather by CustomWeather, © 2015

Note: Actual official high and low records may vary slightly from our data, if they occured in-between our weather recording intervals... More about our weather records


Kristiansand weather history for previous 24 hours

Time TempWeatherWind HumidityBarometerVisibility
1:50 AM
Mon, Nov 30
37 °FLight rain. Overcast.12 mph87%29.06 "Hg6 mi
1:20 AM37 °FPartly cloudy.14 mph87%29.03 "HgN/A
12:50 AM36 °FPassing clouds.9 mph93%29.03 "HgN/A
11:50 PM
Sun, Nov 29
37 °FRain showers. Passing clouds.12 mph87%29.03 "HgN/A
11:20 PM37 °FRain showers. Passing clouds.13 mph81%29.00 "HgN/A
10:50 PM37 °FRain showers. Passing clouds.10 mph87%29.00 "HgN/A
10:20 PM39 °FLight rain. Passing clouds.14 mph75%29.00 "HgN/A
9:50 PM39 °FPassing clouds.10 mph75%28.97 "HgN/A
9:20 PM39 °FPassing clouds.12 mph75%28.97 "HgN/A
8:50 PM36 °FClear.6 mph93%28.94 "Hg10 mi
8:20 PM37 °FPassing clouds.9 mph87%28.91 "HgN/A
7:50 PM37 °FPassing clouds.6 mph87%28.91 "HgN/A
7:20 PM39 °FPassing clouds.8 mph81%28.88 "HgN/A
6:50 PM36 °FPassing clouds.5 mph100%28.91 "HgN/A
6:20 PM36 °FPassing clouds.3 mph93%28.91 "HgN/A
5:50 PM36 °FPassing clouds.6 mph93%28.91 "HgN/A
5:20 PM36 °FPassing clouds.7 mph93%28.94 "HgN/A
4:50 PM36 °FPassing clouds.6 mph93%28.97 "HgN/A
4:20 PM36 °FPassing clouds.2 mph100%29.00 "HgN/A
3:50 PM36 °FPassing clouds.7 mph93%29.03 "HgN/A
3:20 PM36 °FPassing clouds.3 mph93%29.06 "HgN/A
2:50 PM39 °FPassing clouds.12 mph81%29.06 "HgN/A
2:20 PM37 °FScattered clouds.2 mph87%29.09 "HgN/A
1:50 PM39 °FScattered showers. Passing clouds.2 mph81%29.09 "HgN/A
1:20 PM39 °FScattered showers. Passing clouds.3 mph81%29.12 "HgN/A
12:50 PM37 °FSprinkles. Scattered clouds.7 mph87%29.12 "HgN/A
12:20 PM39 °FSprinkles. Partly sunny.9 mph81%29.12 "HgN/A
11:50 AM39 °FScattered showers. Scattered clouds.9 mph81%29.12 "HgN/A
11:20 AM39 °FScattered showers. Scattered clouds.17 mph87%29.12 "HgN/A
10:50 AM37 °FScattered showers. Passing clouds.6 mph87%29.09 "HgN/A
10:20 AM37 °FScattered showers. Partly sunny.5 mph87%29.09 "HgN/A
9:50 AM37 °FSprinkles. Partly sunny.6 mph93%29.09 "HgN/A
9:20 AM37 °FScattered showers. Scattered clouds.3 mph93%29.09 "HgN/A
8:50 AM37 °FScattered clouds.6 mph87%29.09 "HgN/A
7:50 AM39 °FPassing clouds.12 mph81%29.06 "HgN/A
7:20 AM39 °FPassing clouds.10 mph87%29.06 "HgN/A
6:50 AM39 °FSprinkles. Passing clouds.10 mph87%29.06 "HgN/A
5:50 AM39 °FLight rain. Partly cloudy.9 mph87%29.03 "HgN/A
5:20 AM39 °FLight rain. Mostly cloudy.21 mph87%29.03 "Hg6 mi
4:50 AM41 °FRain. Mostly cloudy.17 mph87%29.03 "Hg4 mi
4:20 AM41 °FLight rain. Partly cloudy.16 mph87%29.00 "HgN/A
3:50 AM43 °FLight rain. Partly cloudy.14 mph87%29.00 "HgN/A
3:20 AM43 °FLight rain. Passing clouds.14 mph93%29.03 "HgN/A
Weather by CustomWeather, © 2015

See weather overviewHow to use our weather pages